Regional Weather Roundup
Issued by NWS

Home | Current Version | Previous Version | Graphics & Text | Print | Product List | Glossary On
Versions: 1 2 3 4 5 6 7 8 9 10 11 12 13 14 15 16 17 18 19 20 21 22 23 24 25 26 27 28 29 30 31 32 33 34 35 36 37 38 39 40 41 42 43 44 45 46 47 48 49 50
000
ASUS43 KTOP 211408
RWRKS

WEATHER ROUNDUP FOR KANSAS
NATIONAL WEATHER SERVICE GOODLAND KS
900 AM CDT SAT APR 21 2018

NOTE:  "FAIR" INDICATES FEW OR NO CLOUDS BELOW 12,000 FEET WITH NO
SIGNIFICANT WEATHER AND/OR OBSTRUCTIONS TO VISIBILITY.

KSZ001>006-013>018-027>032-041>047-211500-
NORTHWEST KANSAS

CITY           SKY/WX    TMP DP  RH WIND       PRES   REMARKS
GOODLAND       LGT RAIN  38  37  97 E9        30.16R
HAYS           LGT RAIN  43  42  97 NE13      30.17S FOG
HILL CITY      CLOUDY    42  41  96 NE12      30.20S
RUSSELL        LGT RAIN  44  44 100 NE12      30.16R FOG
$$

KSZ061>065-074>080-084>089-211500-
SOUTHWEST KANSAS

CITY           SKY/WX    TMP DP  RH WIND       PRES   REMARKS
DODGE CITY     FOG       44  42  93 NE8       30.11R VSB 1
ELKHART        FOG       43  43 100 NE12      30.10R VSB 1/2
GARDEN CITY    FOG       41  41 100 NE12      30.11  VSB 1
GREAT BEND     LGT RAIN  45  43  93 E12       30.15R
LIBERAL        LGT RAIN  43  43 100 NE10      30.10R FOG
PRATT          DRIZZLE  N/A N/A N/A E8        30.13R
$$

KSZ066>073-081>083-090>101-211500-
SOUTHEAST KANSAS

CITY           SKY/WX    TMP DP  RH WIND       PRES   REMARKS
CHANUTE        CLOUDY    50  40  68 NE8       30.18F
COFFEYVILLE    CLOUDY    53  38  56 NE6       30.17S
HUTCHINSON     CLOUDY    46  45  96 E8        30.15R
MEDICINE LODGE   N/A     46  44  93 E7        30.10R
NEWTON         LGT RAIN  44  42  93 E12       30.17R
PARSONS        CLOUDY    53  35  50 E6        30.19S
WICHITA INTL   LGT RAIN  47  46  97 E10       30.13R
WICHITA JABRA  LGT RAIN  45  45 100 E8        30.14R
WICHITA MCCONL LGT RAIN  46  45  98 E10       30.13
WINFIELD       RAIN      46  44  93 E8        30.13R
$$

KSZ007>012-019>026-033>040-048>060-102>105-211500-
NORTHEAST KANSAS

CITY           SKY/WX    TMP DP  RH WIND       PRES   REMARKS
CONCORDIA      LGT RAIN  43  39  86 E8        30.23R
EMPORIA        LGT RAIN  46  40  79 E9        30.18S
LAWRENCE       LGT RAIN  47  41  80 SE6       30.25S
MANHATTAN      LGT RAIN  45  43  93 NE5       30.22S FOG
MARYSVILLE     LGT RAIN  43  39  87 E3        30.25F
OLATHE IND     LGT RAIN  47  38  71 NW5       30.24F
OLATHE EXE     CLOUDY    48  29  47 NE6       30.23S
SALINA         CLOUDY    47  44  90 E9        30.19R
TOPEKA BILLARD LGT RAIN  48  41  76 E7        30.23F
TOPEKA FORBES  CLOUDY    48  39  71 E9        30.21F
$$




USA.gov is the U.S. government's official web portal to all federal, state and local government web resources and services.